Weather History for Plymouth, NH

Change the Weather History Date:

Wednesday, June 26, 2013

  Actual Average (KLCI) Record (KLCI)
Temperature  
Mean Temperature 70 °F -  
Max Temperature 76 °F 76 °F 93 °F (2003)
Min Temperature 64 °F 56 °F 44 °F (1986)
Cooling Degree Days 5    
Growing Degree Days 20 (Base 50)    
Moisture  
Dew Point 66 °F    
Average Humidity 88    
Maximum Humidity 96    
Minimum Humidity 70    
Precipitation  
Precipitation 0.15 in - - ()
Sea Level Pressure  
Sea Level Pressure 29.78 in    
Wind  
Wind Speed 2 mph (WNW)    
Max Wind Speed 9 mph    
Max Gust Speed -    
Visibility 8 miles    
Events Rain    
Averages and records for this station are not official NWS values.
T = Trace of Precipitation, MM = Missing Value Source: NWS Daily Summary

Daily Weather History Graph

Daily Weather History Graph

Search for Another Location

Airport:

Trip Planner

Search our weather history database for the weather conditions in past years. The results will help you decide how hot, cold, wet, or windy it might be!

Date:

Astronomy

Jun. 26, 2013 Rise Set
Actual Time 5:06 AM EDT 8:33 PM EDT
Civil Twilight 4:30 AM EDT 9:09 PM EDT
Nautical Twilight 3:43 AM EDT 9:56 PM EDT
Astronomical Twilight 2:43 AM EDT 10:56 PM EDT
Moon 10:45 PM EDT (6/26) 9:02 AM EDT (6/26)
Length of Visible Light 16h 38m
Length of Day
15h 26m
Waning Gibbous, 85% of the Moon is Illuminated
Jun 26
Waning Gibbous
Jun 30
Last Quarter
Jul 8
New
Jul 15
First Quarter
Jul 22
Full

Hourly Weather History & Observations

Time (EDT) Temp. Dew Point Humidity Pressure Visibility Wind Dir Wind Speed Gust Speed Precip Events Conditions
12:15 AM 67.1 °F 65.7 °F 95% 29.74 in 5.0 mi Calm Calm - N/A   Mostly Cloudy
12:35 AM 66.6 °F 65.3 °F 96% 29.76 in 7.0 mi Calm Calm - N/A   Scattered Clouds
12:55 AM 66.2 °F 65.1 °F 96% 29.75 in 4.0 mi NE 3.5 mph - N/A   Scattered Clouds
1:15 AM 67.3 °F 66.2 °F 96% 29.75 in 10.0 mi WNW 3.5 mph - N/A   Mostly Cloudy
1:35 AM 67.3 °F 65.7 °F 95% 29.75 in 10.0 mi Calm Calm - N/A   Mostly Cloudy
1:55 AM 67.1 °F 65.3 °F 94% 29.74 in 7.0 mi WNW 4.6 mph - N/A   Scattered Clouds
2:15 AM 67.1 °F 65.3 °F 94% 29.74 in 10.0 mi Calm Calm - N/A   Scattered Clouds
2:35 AM 66.4 °F 64.8 °F 95% 29.74 in 7.0 mi Calm Calm - N/A   Scattered Clouds
2:55 AM 66.6 °F 64.9 °F 95% 29.74 in 10.0 mi Calm Calm - N/A   Clear
3:15 AM 66.4 °F 64.8 °F 95% 29.74 in 7.0 mi Calm Calm - N/A   Mostly Cloudy
3:35 AM 66.0 °F 64.6 °F 95% 29.74 in 5.0 mi Calm Calm - N/A   Mostly Cloudy
3:55 AM 66.4 °F 64.8 °F 95% 29.74 in 7.0 mi WNW 3.5 mph - N/A   Scattered Clouds
4:15 AM 66.7 °F 64.9 °F 94% 29.75 in 10.0 mi West 5.8 mph - N/A   Scattered Clouds
4:35 AM 66.2 °F 64.2 °F 93% 29.74 in 7.0 mi Calm Calm - N/A   Clear
4:55 AM 65.3 °F 63.9 °F 95% 29.75 in 5.0 mi North 3.5 mph - N/A   Clear
5:15 AM 65.7 °F 64.4 °F 96% 29.76 in 7.0 mi West 5.8 mph - N/A   Clear
5:35 AM 65.3 °F 63.7 °F 94% 29.76 in 4.0 mi Calm Calm - N/A   Clear
5:55 AM 66.2 °F 64.4 °F 94% 29.75 in 7.0 mi NNW 4.6 mph - N/A   Clear
6:15 AM 66.4 °F 64.6 °F 94% 29.75 in 7.0 mi WNW 5.8 mph - N/A   Clear
6:35 AM 66.6 °F 65.1 °F 95% 29.75 in 5.0 mi Calm Calm - N/A   Clear
6:55 AM 67.1 °F 65.3 °F 94% 29.77 in 7.0 mi Calm Calm - N/A   Scattered Clouds
7:15 AM 67.8 °F 65.5 °F 92% 29.76 in 10.0 mi Calm Calm - N/A   Scattered Clouds
7:35 AM 68.4 °F 65.5 °F 90% 29.76 in 10.0 mi WNW 6.9 mph - N/A   Clear
7:55 AM 68.2 °F 65.5 °F 91% 29.77 in 10.0 mi WNW 5.8 mph - N/A   Clear
8:15 AM 68.5 °F 65.5 °F 90% 29.77 in 10.0 mi West 8.1 mph - N/A   Clear
8:35 AM 69.1 °F 65.3 °F 88% 29.78 in 10.0 mi WNW 9.2 mph - N/A   Clear
8:55 AM 69.4 °F 65.5 °F 87% 29.77 in 10.0 mi West 5.8 mph - N/A   Clear
9:15 AM 70.3 °F 66.2 °F 87% 29.78 in 10.0 mi NW 4.6 mph - N/A   Clear
9:35 AM 70.7 °F 66.2 °F 86% 29.78 in 10.0 mi NW 6.9 mph - N/A   Clear
9:55 AM 70.2 °F 65.7 °F 86% 29.78 in 10.0 mi West 5.8 mph - N/A   Clear
10:15 AM 70.7 °F 66.2 °F 86% 29.78 in 10.0 mi WNW 4.6 mph - N/A   Clear
10:35 AM 72.3 °F 66.6 °F 82% 29.78 in 10.0 mi Calm Calm - N/A   Scattered Clouds
10:55 AM 73.6 °F 66.4 °F 78% 29.78 in 10.0 mi NW 3.5 mph - N/A   Clear
11:15 AM 74.3 °F 65.8 °F 75% 29.78 in 10.0 mi West 3.5 mph - N/A   Scattered Clouds
11:35 AM 75.0 °F 66.0 °F 73% 29.79 in 10.0 mi Calm Calm - N/A   Scattered Clouds
11:55 AM 75.2 °F 66.7 °F 75% 29.78 in 10.0 mi WNW 6.9 mph - N/A   Mostly Cloudy
12:15 PM 75.4 °F 66.7 °F 74% 29.78 in 10.0 mi West 4.6 mph - N/A   Scattered Clouds
12:35 PM 76.1 °F 66.7 °F 73% 29.79 in 10.0 mi West 4.6 mph - N/A   Scattered Clouds
12:55 PM 76.3 °F 66.0 °F 70% 29.78 in 10.0 mi West 6.9 mph - N/A   Clear
1:15 PM 75.2 °F 65.8 °F 73% 29.78 in 10.0 mi West 4.6 mph - N/A Rain Light Rain
1:35 PM 73.9 °F 67.1 °F 79% 29.78 in 10.0 mi West 3.5 mph - N/A Rain Light Rain
1:55 PM 73.8 °F 67.3 °F 80% 29.78 in 7.0 mi West 5.8 mph - N/A Rain Light Rain
2:15 PM 73.8 °F 68.0 °F 82% 29.79 in 10.0 mi NW 4.6 mph - N/A   Light Drizzle
2:35 PM 73.2 °F 68.2 °F 84% 29.79 in 10.0 mi NW 4.6 mph - N/A Rain Rain
2:55 PM 72.5 °F 68.7 °F 88% 29.80 in 5.0 mi WNW 4.6 mph - 0.01 in Rain Light Rain
3:15 PM 71.2 °F 68.0 °F 89% 29.80 in 5.0 mi Calm Calm - 0.02 in Rain Light Rain
3:35 PM 70.7 °F 67.6 °F 90% 29.80 in 5.0 mi Calm Calm - 0.05 in Rain Rain
3:55 PM 70.7 °F 68.0 °F 91% 29.80 in 5.0 mi Calm Calm - 0.10 in Rain Rain
4:15 PM 70.7 °F 68.0 °F 91% 29.79 in 5.0 mi Calm Calm - 0.03 in Rain Rain
4:35 PM 70.2 °F 68.2 °F 93% 29.77 in 5.0 mi Calm Calm - 0.03 in   Light Drizzle
4:55 PM 70.7 °F 67.1 °F 88% 29.77 in 7.0 mi Calm Calm - 0.04 in Rain Light Rain
5:15 PM 70.7 °F 68.2 °F 92% 29.78 in 7.0 mi Calm Calm - N/A Rain Light Rain
5:35 PM 71.2 °F 67.8 °F 89% 29.79 in 10.0 mi West 4.6 mph - N/A   Mostly Cloudy
5:55 PM 71.6 °F 66.6 °F 84% 29.79 in 10.0 mi West 3.5 mph - N/A   Mostly Cloudy
6:15 PM 73.2 °F 66.4 °F 79% 29.80 in 10.0 mi Calm Calm - N/A   Scattered Clouds
6:35 PM 73.6 °F 66.2 °F 78% 29.80 in 10.0 mi Calm Calm - N/A   Clear
6:55 PM 73.8 °F 64.8 °F 73% 29.80 in 10.0 mi Calm Calm - N/A   Clear
7:15 PM 73.4 °F 66.2 °F 78% 29.81 in 10.0 mi Calm Calm - N/A   Clear
7:35 PM 73.4 °F 65.5 °F 76% 29.81 in 10.0 mi Calm Calm - N/A   Clear
7:55 PM 72.0 °F 66.7 °F 84% 29.82 in 10.0 mi Calm Calm - N/A   Clear
8:15 PM 69.6 °F 66.9 °F 91% 29.82 in 10.0 mi Calm Calm - N/A   Clear
8:35 PM 68.4 °F 65.8 °F 92% 29.81 in 10.0 mi Calm Calm - N/A   Clear
8:55 PM 67.1 °F 65.1 °F 93% 29.81 in 5.0 mi Calm Calm - N/A   Clear
9:15 PM 66.2 °F 64.6 °F 94% 29.82 in 7.0 mi Calm Calm - N/A   Scattered Clouds
9:35 PM 65.3 °F 63.9 °F 95% 29.84 in 7.0 mi Calm Calm - N/A   Mostly Cloudy
9:55 PM 65.5 °F 64.4 °F 96% 29.84 in 5.0 mi Calm Calm - N/A   Overcast
10:15 PM 64.9 °F 63.7 °F 96% 29.84 in 5.0 mi Calm Calm - N/A   Overcast
10:35 PM 65.3 °F 64.0 °F 96% 29.86 in 7.0 mi Calm Calm - N/A   Overcast
10:55 PM 65.3 °F 64.0 °F 96% 29.86 in 7.0 mi Calm Calm - N/A   Overcast
11:15 PM 65.3 °F 63.9 °F 95% 29.84 in 2.0 mi Calm Calm - N/A   Overcast
11:35 PM 65.7 °F 64.6 °F 96% 29.84 in 7.0 mi East 3.5 mph - N/A   Overcast
11:55 PM 65.7 °F 64.4 °F 96% 29.84 in 7.0 mi East 5.8 mph - N/A   Overcast